Flag for Germany Weather past 2 weeks in Rheda-Wiedenbrück, North Rhine-Westphalia, Germany

Now
59 °F

Partly sunny.


Feels Like: 56 °F
Forecast: 45 / 58 °F
Wind: 14 mph from Southwest

Location: Paderborn / Lippstadt

Current Time: May 29, 2015 at 3:11:57 PM

Latest Report: May 29, 2015 at 2:50 PM


Visibility: N/A

Pressure: 29.80 "Hg

Humidity: 45%

Dew point: 37 °F

Location of Rheda-WiedenbrückLocation

Historic Weather in Rheda-Wiedenbrück — Graph

°F

Rheda-Wiedenbrück temperature yesterday

Maximum temperature yesterday: 64 °F (at 1:20 PM)
Minimum temperature yesterday: 48 °F (at 11:50 PM)
Average temperature yesterday: 55 °F

Past Weeks' High & Low Weather Summary

 TemperatureHumidityPressure
High68 °F (May 18, 3:50 PM)100% (May 16, 7:20 PM)30.33 "Hg (May 16, 7:20 PM)
Low37 °F (May 15, 3:50 AM)31% (May 19, 3:50 PM)29.62 "Hg (May 18, 9:20 PM)
Average51 °F67%30.05 "Hg
* Reported May 14 1:20 PM — May 29 1:50 PM, Rheda-Wiedenbrück, Weather by CustomWeather, © 2015

Note: Actual official high and low records may vary slightly from our data, if they occured in-between our weather recording intervals... More about our weather records

Advertising

Rheda-Wiedenbrück weather history for previous 24 hours

 ConditionsComfort  
Time TempWeatherWind HumidityBarometerVisibility
1:50 PM
Fri, May 29
59 °FPassing clouds.14 mph45%29.80 "HgN/A
1:20 PM57 °FSunny.13 mph51%29.83 "Hg10 mi
12:50 PM57 °FScattered clouds.12 mph51%29.83 "HgN/A
12:20 PM55 °FScattered clouds.14 mph59%29.86 "HgN/A
11:50 AM57 °FScattered clouds.13 mph59%29.86 "HgN/A
11:20 AM55 °FScattered clouds.12 mph63%29.86 "HgN/A
10:50 AM55 °FScattered clouds.8 mph63%29.86 "HgN/A
10:20 AM55 °FScattered clouds.7 mph63%29.86 "HgN/A
9:50 AM55 °FPassing clouds.6 mph59%29.86 "HgN/A
9:20 AM54 °FPassing clouds.3 mph72%29.89 "HgN/A
8:50 AM52 °FSunny.6 mph72%29.89 "Hg10 mi
8:20 AM50 °FSunny.6 mph82%29.89 "Hg10 mi
7:50 AM50 °FSunny.5 mph76%29.89 "Hg10 mi
7:20 AM48 °FSunny.6 mph82%29.89 "Hg10 mi
6:50 AM48 °FClear.5 mph87%29.92 "Hg5 mi
6:20 AM45 °FClear.6 mph100%29.92 "Hg4 mi
5:50 AM45 °FClear.8 mph93%29.92 "Hg4 mi
5:20 AM45 °FClear.5 mph100%29.92 "Hg4 mi
4:50 AM45 °FClear.6 mph100%29.92 "Hg4 mi
4:20 AM46 °FClear.6 mph93%29.92 "Hg4 mi
3:50 AM46 °FClear.5 mph100%29.95 "Hg3 mi
3:20 AM46 °FClear.2 mph100%29.95 "Hg4 mi
2:50 AM45 °FClear.5 mph100%29.95 "Hg4 mi
2:20 AM48 °FClear.5 mph94%29.95 "Hg4 mi
1:50 AM46 °FClear.2 mph93%29.95 "Hg10 mi
1:20 AM48 °FPassing clouds.3 mph94%29.95 "Hg4 mi
12:50 AM48 °FPassing clouds.3 mph94%29.95 "Hg4 mi
12:20 AM48 °FClear.3 mph94%29.95 "Hg10 mi
11:50 PM
Thu, May 28
48 °FPartly cloudy.5 mph94%29.95 "HgN/A
11:20 PM50 °FPartly cloudy.3 mph88%29.95 "HgN/A
10:50 PM50 °FPartly cloudy.3 mph88%29.95 "HgN/A
10:20 PM50 °FBroken clouds.9 mph94%29.95 "HgN/A
9:50 PM50 °FBroken clouds.10 mph88%29.95 "Hg3 mi
9:20 PM50 °FBroken clouds.9 mph94%29.95 "Hg3 mi
8:50 PM50 °FBroken clouds.14 mph94%29.95 "Hg3 mi
8:20 PM50 °FLight rain. Broken clouds.9 mph94%29.95 "HgN/A
7:50 PM50 °FLight rain. Broken clouds.9 mph94%29.92 "HgN/A
7:20 PM50 °FLight rain. Broken clouds.6 mph88%29.92 "HgN/A
6:50 PM52 °FLight rain. Broken clouds.10 mph77%29.92 "HgN/A
6:20 PM55 °FLight rain. Partly sunny.15 mph63%29.92 "HgN/A
5:50 PM59 °FSprinkles. Scattered clouds.14 mph55%29.89 "HgN/A
5:20 PM64 °FScattered clouds.17 mph46%29.89 "HgN/A
4:50 PM63 °FScattered clouds.17 mph49%29.89 "HgN/A
4:20 PM64 °FSunny.20 mph46%29.89 "Hg10 mi
3:50 PM63 °FSunny.21 mph42%29.89 "Hg10 mi
3:20 PM64 °FPassing clouds.16 mph37%29.89 "HgN/A
Weather by CustomWeather, © 2015

See weather overviewHow to use our weather pages